EW5673 Weather Reports


time (UTC)temp
C
wind
direction
speed
KPH
gust
KPH
rain 1hr
cm
rain 24hr
cm
rain mn
cm
humidity
%
barometer
mb
20260510091557 16 352 14.5 24.1 0.00 0.00 0.00 64 1019.9
20260510090056 16 5 11.3 24.1 0.00 0.00 0.00 67 1019.9
20260510084553 15 12 9.7 19.3 0.00 0.00 0.00 66 1019.9
20260510083055 15 323 11.3 19.3 0.00 0.00 0.00 70 1020.0
20260510081625 15 340 8.0 22.5 0.00 0.00 0.00 69 1020.1
20260510080055 14 355 9.7 24.1 0.00 0.00 0.00 71 1020.2
20260510074555 13 11 11.3 20.9 0.00 0.00 0.00 71 1020.3
20260510073104 13 335 11.3 22.5 0.00 0.00 0.00 72 1020.4
20260510071551 13 336 8.0 17.7 0.00 0.00 0.00 76 1020.6
20260510070056 12 5 11.3 20.9 0.00 0.00 0.00 78 1020.7
20260510064557 12 360 6.4 16.1 0.00 0.00 0.00 81 1020.8
20260510063051 12 352 9.7 20.9 0.00 0.00 0.00 81 1020.7
20260510061552 12 9 6.4 16.1 0.00 0.00 0.00 82 1020.9
20260510060057 11 355 8.0 20.9 0.00 0.00 0.00 84 1020.9
20260510054556 11 348 6.4 16.1 0.00 0.00 0.00 85 1020.8
20260510053107 11 14 8.0 16.1 0.00 0.00 0.00 86 1020.9
20260510051606 10 13 6.4 16.1 0.00 0.00 0.00 86 1020.8
20260510050112 10 30 4.8 14.5 0.00 0.00 0.00 87 1020.7
20260510044605 10 360 4.8 16.1 0.00 0.00 0.00 87 1020.7
20260510043059 10 17 6.4 14.5 0.00 0.00 0.00 87 1020.6
20260510041602 10 355 4.8 14.5 0.00 0.00 0.00 87 1020.4
20260510040055 10 344 6.4 14.5 0.00 0.00 0.00 87 1020.6
20260510034556 10 5 4.8 14.5 0.00 0.00 0.00 87 1020.6
20260510033107 10 348 3.2 11.3 0.00 0.00 0.00 87 1020.6
20260510031550 10 360 6.4 12.9 0.00 0.00 0.00 87 1020.7
20260510030110 10 355 4.8 9.7 0.00 0.00 0.00 87 1020.6
20260510024658 11 15 4.8 16.1 0.00 0.00 0.00 87 1020.7
20260510023052 11 329 6.4 14.5 0.00 0.00 0.00 86 1020.7
20260510021554 10 325 4.8 12.9 0.00 0.00 0.00 86 1020.9
20260510020051 10 351 4.8 11.3 0.00 0.00 0.00 85 1020.9
20260510014558 11 355 3.2 9.7 0.00 0.00 0.00 84 1020.9
20260510013051 11 9 3.2 9.7 0.00 0.00 0.00 84 1021.0
20260510011549 11 333 4.8 11.3 0.00 0.00 0.00 83 1021.0
20260510010049 11 345 3.2 9.7 0.00 0.00 0.00 82 1021.2
20260510004556 11 0 1.6 8.0 0.00 0.00 0.00 82 1021.2
20260510003100 11 360 0.0 3.2 0.00 0.00 0.00 81 1021.4
20260510001556 11 12 0.0 4.8 0.00 0.00 0.00 80 1021.3
20260510000056 11 351 0.0 6.4 0.00 0.00 0.00 79 1021.5
20260509234559 11 0 1.6 8.0 0.00 0.00 0.00 79 1021.7
20260509233101 11 355 0.0 3.2 0.00 0.00 0.00 77 1021.6
20260509231556 11 0 0.0 1.6 0.00 0.00 0.00 75 1021.7
20260509230058 11 5 0.0 6.4 0.00 0.00 0.00 75 1021.7
20260509224553 12 0 0.0 3.2 0.00 0.00 0.00 74 1021.6
20260509223058 12 0 0.0 4.8 0.00 0.00 0.00 72 1021.6
20260509221554 13 9 1.6 6.4 0.00 0.00 0.00 69 1021.7
20260509220046 13 0 1.6 8.0 0.00 0.00 0.00 68 1021.7
20260509214550 13 360 1.6 8.0 0.00 0.00 0.00 68 1021.6
20260509213049 13 0 0.0 11.3 0.00 0.00 0.00 68 1021.7
20260509211557 13 5 3.2 9.7 0.00 0.00 0.00 68 1021.5
20260509210050 14 0 0.0 4.8 0.00 0.00 0.00 67 1021.4
20260509204556 14 11 1.6 6.4 0.00 0.00 0.00 66 1021.2
20260509203058 15 11 3.2 8.0 0.00 0.00 0.00 65 1021.1
20260509201600 15 360 3.2 8.0 0.00 0.00 0.00 65 1021.4
20260509200104 14 355 3.2 6.4 0.00 0.00 0.00 67 1021.1
20260509194549 14 355 3.2 8.0 0.00 0.00 0.00 67 1021.0
20260509193114 14 0 0.0 0.0 0.00 0.00 0.00 69 1020.9
20260509191553 15 0 0.0 0.0 0.00 0.00 0.00 69 1021.0
20260509190052 15 355 0.0 6.4 0.00 0.00 0.00 66 1020.9
20260509184604 16 338 3.2 8.0 0.00 0.00 0.00 64 1020.9
20260509183056 16 355 4.8 9.7 0.00 0.00 0.00 62 1020.9
20260509181555 17 317 4.8 8.0 0.00 0.00 0.00 62 1020.8
20260509180054 17 347 4.8 14.5 0.00 0.00 0.00 60 1020.7
20260509174555 18 333 6.4 14.5 0.00 0.00 0.00 58 1020.5
20260509173106 18 338 6.4 16.1 0.00 0.00 0.00 58 1020.5
20260509171615 18 0 6.4 16.1 0.00 0.00 0.00 58 1020.4
20260509170052 18 344 8.0 16.1 0.00 0.00 0.00 56 1020.6
20260509164552 19 329 6.4 14.5 0.00 0.00 0.00 55 1020.7
20260509163104 20 0 1.6 14.5 0.00 0.00 0.00 54 1020.7
20260509161553 20 0 0.0 4.8 0.00 0.00 0.00 46 1020.7
20260509160051 20 0 0.0 6.4 0.00 0.00 0.00 49 1020.7
20260509154551 20 0 0.0 11.3 0.00 0.00 0.00 45 1020.7
20260509153052 21 0 3.2 12.9 0.00 0.00 0.00 47 1020.8
20260509151603 21 0 0.0 8.0 0.00 0.00 0.00 46 1020.8
20260509144701 20 355 3.2 6.4 0.00 0.00 0.00 49 1020.9
20260509143052 21 0 0.0 6.4 0.00 0.00 0.00 44 1021.1
20260509141551 21 0 0.0 6.4 0.00 0.00 0.00 45 1021.3
20260509140052 20 0 1.6 9.7 0.00 0.00 0.00 49 1021.6
20260509134553 20 9 3.2 12.9 0.00 0.00 0.00 50 1021.7
20260509133054 20 0 0.0 11.3 0.00 0.00 0.00 47 1022.0
20260509131555 20 0 0.0 9.7 0.00 0.00 0.00 48 1022.0
20260509130104 20 0 0.0 11.3 0.00 0.00 0.00 50 1022.3
20260509124605 20 0 1.6 8.0 0.00 0.00 0.00 53 1022.5
20260509123056 20 0 1.6 9.7 0.00 0.00 0.00 49 1022.6
20260509121552 20 335 1.6 8.0 0.00 0.00 0.00 48 1022.8
20260509120107 20 0 1.6 9.7 0.00 0.00 0.00 51 1022.9
20260509114607 20 0 0.0 9.7 0.00 0.00 0.00 51 1022.9
20260509113052 19 0 0.0 9.7 0.00 0.00 0.00 52 1023.2
20260509111549 19 0 0.0 12.9 0.00 0.00 0.00 55 1023.4
20260509110056 18 0 3.2 16.1 0.00 0.00 0.00 55 1023.4
20260509104552 19 355 1.6 12.9 0.00 0.00 0.00 53 1023.6
20260509103053 18 0 0.0 16.1 0.00 0.00 0.00 53 1023.7
20260509101552 19 0 3.2 14.5 0.00 0.00 0.00 52 1023.6
20260509100058 18 59 0.0 14.5 0.00 0.00 0.00 51 1023.6
20260509094553 18 0 1.6 9.7 0.00 0.00 0.00 55 1023.5
20260509093052 19 11 0.0 4.8 0.00 0.00 0.00 54 1023.8